Vacaville, CA

8:07 AM PST on February 20, 2018 (GMT -0800)
Nut Tree

Weather History for KVCB - October, 2011

Change the Weather History Date:

Saturday, October 29, 2011

  Actual Average Record
Temperature  
Mean Temperature 62 °F -  
Max Temperature 82 °F 71 °F 88 °F (1955)
Min Temperature 41 °F 46 °F 35 °F (1970)
Degree Days  
Heating Degree Days 4    
Growing Degree Days 12 (Base 50)    
Moisture  
Dew Point 36 °F    
Average Humidity 47    
Maximum Humidity 76    
Minimum Humidity 15    
Precipitation  
Precipitation 0.00 in - - ()
Sea Level Pressure  
Sea Level Pressure 30.10 in    
Wind  
Wind Speed 1 mph (WSW)    
Max Wind Speed 7 mph    
Max Gust Speed -    
Visibility 10 miles    
Events      
Averages and records for this station are not official NWS values.
T = Trace of Precipitation, MM = Missing Value Source: NWS Daily Summary

Daily Weather History Graph

Daily Weather History Graph

Search for Another Location

Airport or City:

Trip Planner

Search our weather history database for the weather conditions in past years. The results will help you decide how hot, cold, wet, or windy it might be!

Date:

Astronomy

Oct. 29, 2011 Rise Set
Actual Time 7:30 AM PDT 6:11 PM PDT
Civil Twilight 7:03 AM PDT 6:38 PM PDT
Nautical Twilight 6:32 AM PDT 7:10 PM PDT
Astronomical Twilight 6:01 AM PDT 7:40 PM PDT
Moon 10:55 AM PDT (10/29) 8:43 PM PDT (10/29)
Length of Visible Light 11h 35m
Length of Day
10h 40m
Waxing Crescent, 12% of the Moon is Illuminated
Oct 29
Waxing Crescent
Nov 2
First Quarter
Nov 10
Full
Nov 18
Last Quarter
Nov 24
New

Hourly Weather History & Observations

Time (PDT) Temp. Dew Point Humidity Pressure Visibility Wind Dir Wind Speed Gust Speed Precip Events Conditions
12:53 AM 46.0 °F 36.0 °F 68% 30.13 in 10.0 mi Calm Calm - N/A   Clear
1:53 AM 44.1 °F 36.0 °F 73% 30.13 in 10.0 mi Calm Calm - N/A   Clear
3:53 AM 44.1 °F 35.1 °F 71% 30.14 in 10.0 mi Calm Calm - N/A   Clear
4:53 AM 42.1 °F 35.1 °F 76% 30.13 in 10.0 mi Calm Calm - N/A   Clear
5:53 AM 42.1 °F 35.1 °F 76% 30.14 in 10.0 mi Calm Calm - N/A   Clear
6:53 AM 41.0 °F 34.0 °F 76% 30.15 in 10.0 mi Calm Calm - N/A   Clear
7:53 AM 43.0 °F 35.1 °F 74% 30.16 in 10.0 mi Calm Calm - N/A   Clear
8:53 AM 54.0 °F 37.0 °F 53% 30.17 in 10.0 mi Calm Calm - N/A   Clear
9:53 AM 62.1 °F 37.0 °F 39% 30.17 in 10.0 mi Calm Calm - N/A   Clear
10:53 AM 66.9 °F 37.9 °F 34% 30.17 in 10.0 mi Calm Calm - N/A   Clear
11:53 AM 73.9 °F 34.0 °F 23% 30.15 in 10.0 mi NNW 3.5 mph - N/A   Clear
12:53 PM 79.0 °F 30.0 °F 17% 30.12 in 10.0 mi NNE 5.8 mph - N/A   Clear
1:53 PM 81.0 °F 30.9 °F 16% 30.09 in 10.0 mi Variable 3.5 mph - N/A   Clear
2:53 PM 82.0 °F 30.0 °F 15% 30.07 in 10.0 mi Variable 3.5 mph - N/A   Clear
3:53 PM 81.0 °F 37.0 °F 21% 30.05 in 10.0 mi SSW 6.9 mph - N/A   Clear
5:53 PM 75.9 °F 39.9 °F 27% 30.03 in 10.0 mi SW 3.5 mph - N/A   Clear
6:53 PM 66.9 °F 41.0 °F 39% 30.04 in 10.0 mi WSW 3.5 mph - N/A   Clear
7:53 PM 64.9 °F 39.0 °F 39% 30.04 in 10.0 mi SW 3.5 mph - N/A   Clear
8:53 PM 64.9 °F 39.0 °F 39% 30.04 in 10.0 mi SW 4.6 mph - N/A   Clear
9:53 PM 62.1 °F 39.0 °F 43% 30.04 in 10.0 mi SW 3.5 mph - N/A   Clear
10:53 PM 55.9 °F 39.9 °F 55% 30.04 in 10.0 mi SW 3.5 mph - N/A   Clear
11:53 PM 55.0 °F 39.9 °F 57% 30.06 in 10.0 mi Calm Calm - N/A   Clear